When you browse on this site, cookies collect data to enhance your experience and personalize the content and advertising you see.
Visit our Privacy Policy to learn more. By continuing to use the site, you agree to this use of cookies and data.
  • Em Portugal
  • Lista de países
  • Para 7 dias
  • Temperatura da água
  • Mapas de satélite
  • Mapa do tempo
  • Widgets de tempo
  • user-avatar
    Iniciar Sessão

    Previsão horária em Abovyan

    Hoje, 20 Junho, Quinta-feira

    Tempo Temperatura Precipitação Vento Pressão Humidade
    00:00 +21°C° 0.5 mm 1 m/s 670 mmHg 71%
    01:00 +21°C° 0.2 mm 1 m/s 670 mmHg 72%
    02:00 +20°C° 0.2 mm 1 m/s 669 mmHg 72%
    03:00 +20°C° 0 mm 1 m/s 669 mmHg 72%
    04:00 +20°C° 0.2 mm 1 m/s 669 mmHg 70%
    05:00 +21°C° 0.2 mm 1 m/s 669 mmHg 68%
    06:00 +22°C° 0.2 mm 1 m/s 670 mmHg 66%
    07:00 +23°C° 0.3 mm 1 m/s 670 mmHg 61%
    08:00 +25°C° 0.3 mm 1 m/s 669 mmHg 57%
    09:00 +26°C° 0.3 mm 1 m/s 669 mmHg 52%
    10:00 +27°C° 0.4 mm 2 m/s 669 mmHg 48%
    11:00 +28°C° 0.4 mm 2 m/s 669 mmHg 44%
    12:00 +29°C° 0.4 mm 3 m/s 669 mmHg 41%
    13:00 +30°C° 0.1 mm 3 m/s 669 mmHg 37%
    14:00 +31°C° 0.1 mm 3 m/s 669 mmHg 34%
    15:00 +31°C° 0.1 mm 3 m/s 669 mmHg 31%
    16:00 +30°C° 0.1 mm 3 m/s 669 mmHg 37%
    17:00 +29°C° 0.1 mm 3 m/s 669 mmHg 42%
    18:00 +28°C° 0.1 mm 3 m/s 668 mmHg 48%
    19:00 +26°C° 0.4 mm 3 m/s 668 mmHg 55%
    20:00 +22°C° 0.4 mm 3 m/s 668 mmHg 63%
    21:00 +20°C° 0.4 mm 3 m/s 668 mmHg 70%
    22:00 +20°C° 0.6 mm 2 m/s 668 mmHg 72%
    23:00 +19°C° 0.6 mm 2 m/s 668 mmHg 74%

    Amanhã, 21 Junho, Sexta-feira

    Tempo Temperatura Precipitação Vento Pressão Humidade
    00:00 +20°C° 0.6 mm 1 m/s 668 mmHg 77%
    01:00 +19°C° 0.4 mm 1 m/s 668 mmHg 77%
    02:00 +19°C° 0.4 mm 1 m/s 668 mmHg 76%
    03:00 +19°C° 0.4 mm 1 m/s 668 mmHg 76%
    04:00 +20°C° 0.2 mm 1 m/s 668 mmHg 74%
    05:00 +20°C° 0.2 mm 1 m/s 668 mmHg 71%
    06:00 +21°C° 0.2 mm 1 m/s 668 mmHg 69%
    07:00 +22°C° 0.4 mm 1 m/s 669 mmHg 64%
    08:00 +24°C° 0.4 mm 1 m/s 669 mmHg 59%
    09:00 +25°C° 0.4 mm 1 m/s 669 mmHg 54%
    10:00 +26°C° 0.6 mm 1 m/s 669 mmHg 50%
    11:00 +27°C° 0.6 mm 1 m/s 669 mmHg 46%
    12:00 +29°C° 0.6 mm 1 m/s 669 mmHg 42%
    13:00 +29°C° 0.4 mm 1 m/s 669 mmHg 41%
    14:00 +30°C° 0.4 mm 1 m/s 669 mmHg 39%
    15:00 +30°C° 0.4 mm 1 m/s 669 mmHg 37%
    16:00 +29°C° 0.3 mm 2 m/s 669 mmHg 41%
    17:00 +28°C° 0.3 mm 3 m/s 669 mmHg 45%
    18:00 +27°C° 0.3 mm 4 m/s 669 mmHg 49%
    19:00 +25°C° 0.3 mm 3 m/s 669 mmHg 55%
    20:00 +23°C° 0.3 mm 2 m/s 669 mmHg 60%
    21:00 +20°C° 0.3 mm 2 m/s 670 mmHg 66%
    22:00 +21°C° 0.1 mm 1 m/s 670 mmHg 66%
    23:00 +21°C° 0.1 mm 1 m/s 670 mmHg 67%

    Depois de amanhã, 22 Junho, Sábado

    Tempo Temperatura Precipitação Vento Pressão Humidade
    00:00 +20°C° 0.1 mm 1 m/s 670 mmHg 67%
    01:00 +20°C° 0 mm 1 m/s 670 mmHg 67%
    02:00 +20°C° 0 mm 1 m/s 670 mmHg 68%
    03:00 +19°C° 0 mm 1 m/s 670 mmHg 69%
    04:00 +20°C° 0 mm 1 m/s 670 mmHg 67%
    05:00 +21°C° 0 mm 1 m/s 670 mmHg 66%
    06:00 +22°C° 0 mm 1 m/s 671 mmHg 65%
    07:00 +23°C° 0.1 mm 1 m/s 671 mmHg 60%
    08:00 +25°C° 0.1 mm 1 m/s 672 mmHg 56%
    09:00 +26°C° 0.1 mm 1 m/s 672 mmHg 51%
    10:00 +27°C° 0.3 mm 1 m/s 672 mmHg 48%
    11:00 +28°C° 0.3 mm 2 m/s 672 mmHg 45%
    12:00 +30°C° 0.3 mm 2 m/s 672 mmHg 42%
    13:00 +30°C° 0.2 mm 2 m/s 672 mmHg 40%
    14:00 +31°C° 0.2 mm 2 m/s 672 mmHg 38%
    15:00 +32°C° 0.2 mm 2 m/s 672 mmHg 36%
    16:00 +31°C° 0.2 mm 2 m/s 672 mmHg 39%
    17:00 +31°C° 0.2 mm 3 m/s 672 mmHg 41%
    18:00 +30°C° 0.2 mm 3 m/s 671 mmHg 44%
    19:00 +28°C° 0.2 mm 3 m/s 672 mmHg 47%
    20:00 +26°C° 0.2 mm 3 m/s 672 mmHg 51%
    21:00 +24°C° 0.2 mm 3 m/s 672 mmHg 54%
    22:00 +22°C° 0.6 mm 3 m/s 672 mmHg 59%
    23:00 +21°C° 0.6 mm 2 m/s 672 mmHg 64%

    23 Junho, Domingo

    Tempo Temperatura Precipitação Vento Pressão Humidade
    00:00 +21°C° 0.6 mm 1 m/s 671 mmHg 68%
    01:00 +21°C° 0.1 mm 1 m/s 671 mmHg 69%
    02:00 +21°C° 0.1 mm 1 m/s 671 mmHg 70%
    03:00 +21°C° 0.1 mm 1 m/s 671 mmHg 71%
    04:00 +21°C° 0 mm 1 m/s 672 mmHg 69%
    05:00 +22°C° 0 mm 1 m/s 672 mmHg 67%
    06:00 +23°C° 0 mm 1 m/s 672 mmHg 66%
    07:00 +25°C° 0.1 mm 1 m/s 673 mmHg 61%
    08:00 +26°C° 0.1 mm 1 m/s 673 mmHg 56%
    09:00 +28°C° 0.1 mm 1 m/s 673 mmHg 51%
    10:00 +29°C° 0.1 mm 2 m/s 673 mmHg 47%
    11:00 +30°C° 0.1 mm 2 m/s 673 mmHg 43%
    12:00 +32°C° 0.1 mm 2 m/s 673 mmHg 39%
    13:00 +32°C° 0.1 mm 2 m/s 673 mmHg 36%
    14:00 +34°C° 0.1 mm 2 m/s 673 mmHg 34%
    15:00 +35°C° 0.1 mm 2 m/s 673 mmHg 32%
    16:00 +34°C° 0.1 mm 2 m/s 673 mmHg 35%
    17:00 +34°C° 0.1 mm 3 m/s 673 mmHg 38%
    18:00 +33°C° 0.1 mm 3 m/s 672 mmHg 41%
    19:00 +30°C° 0 mm 3 m/s 672 mmHg 44%
    20:00 +28°C° 0 mm 3 m/s 672 mmHg 46%
    21:00 +26°C° 0 mm 4 m/s 672 mmHg 48%
    22:00 +25°C° 0.1 mm 3 m/s 672 mmHg 52%
    23:00 +24°C° 0.1 mm 2 m/s 672 mmHg 55%

    24 Junho, Segunda-feira

    Tempo Temperatura Precipitação Vento Pressão Humidade
    00:00 +24°C° 0.1 mm 2 m/s 672 mmHg 58%
    01:00 +23°C° 0 mm 2 m/s 672 mmHg 60%
    02:00 +23°C° 0 mm 2 m/s 672 mmHg 61%
    03:00 +21°C° 0 mm 2 m/s 672 mmHg 63%
    04:00 +23°C° 0 mm 1 m/s 672 mmHg 62%
    05:00 +24°C° 0 mm 1 m/s 672 mmHg 61%
    06:00 +24°C° 0 mm 1 m/s 672 mmHg 60%
    07:00 +26°C° 0 mm 1 m/s 672 mmHg 54%
    08:00 +28°C° 0 mm 1 m/s 673 mmHg 49%
    09:00 +30°C° 0 mm 1 m/s 673 mmHg 44%
    10:00 +31°C° 0.1 mm 1 m/s 673 mmHg 41%
    11:00 +32°C° 0.1 mm 1 m/s 673 mmHg 38%
    12:00 +34°C° 0.1 mm 2 m/s 673 mmHg 36%
    13:00 +35°C° 0.1 mm 2 m/s 673 mmHg 34%
    14:00 +35°C° 0.1 mm 2 m/s 673 mmHg 33%
    15:00 +36°C° 0.1 mm 2 m/s 673 mmHg 31%
    16:00 +35°C° 0.1 mm 2 m/s 672 mmHg 35%
    17:00 +34°C° 0.1 mm 3 m/s 672 mmHg 38%
    18:00 +34°C° 0.1 mm 4 m/s 672 mmHg 42%
    19:00 +30°C° 0.2 mm 4 m/s 672 mmHg 46%
    20:00 +28°C° 0.2 mm 3 m/s 672 mmHg 50%
    21:00 +26°C° 0.2 mm 3 m/s 672 mmHg 54%
    22:00 +26°C° 0 mm 2 m/s 672 mmHg 56%
    23:00 +25°C° 0 mm 2 m/s 672 mmHg 58%

    25 Junho, Terça-feira

    Tempo Temperatura Precipitação Vento Pressão Humidade
    00:00 +24°C° 0 mm 2 m/s 672 mmHg 60%
    01:00 +24°C° 0 mm 2 m/s 672 mmHg 60%
    02:00 +23°C° 0 mm 2 m/s 672 mmHg 61%
    03:00 +23°C° 0 mm 2 m/s 672 mmHg 62%
    04:00 +23°C° 0 mm 2 m/s 672 mmHg 60%
    05:00 +24°C° 0 mm 1 m/s 672 mmHg 59%
    06:00 +25°C° 0 mm 1 m/s 673 mmHg 58%
    07:00 +27°C° 0 mm 1 m/s 673 mmHg 53%
    08:00 +28°C° 0 mm 1 m/s 673 mmHg 48%
    09:00 +30°C° 0 mm 1 m/s 673 mmHg 43%
    10:00 +32°C° 0 mm 1 m/s 673 mmHg 40%
    11:00 +33°C° 0 mm 1 m/s 674 mmHg 37%
    12:00 +34°C° 0 mm 1 m/s 674 mmHg 34%
    13:00 +35°C° 0 mm 1 m/s 673 mmHg 32%
    14:00 +36°C° 0 mm 1 m/s 673 mmHg 29%
    15:00 +36°C° 0 mm 1 m/s 673 mmHg 27%
    16:00 +37°C° 0 mm 2 m/s 673 mmHg 30%
    17:00 +36°C° 0 mm 2 m/s 673 mmHg 34%
    18:00 +35°C° 0 mm 3 m/s 672 mmHg 38%
    19:00 +33°C° 0 mm 3 m/s 672 mmHg 41%
    20:00 +30°C° 0 mm 3 m/s 672 mmHg 45%
    21:00 +28°C° 0 mm 4 m/s 672 mmHg 48%
    22:00 +27°C° 0 mm 3 m/s 672 mmHg 50%
    23:00 +26°C° 0 mm 3 m/s 672 mmHg 52%
    Mostrar mais